{"data":{"norad_id":53895,"epoch":"2026-05-25T04:00:03.998880Z","epoch_age_seconds":57258,"freshness":"FRESH","line1":"1 53895U 22119K   26145.16671295  .00166656  00000+0  14123-2 0  9992","line2":"2 53895  53.2169 325.6279 0000567  73.6370 345.5396 15.68669201  5785","mean_motion":15.68669201,"eccentricity":5.67e-5,"inclination_deg":53.2169,"raan_deg":325.6279,"arg_perigee_deg":73.637,"mean_anomaly_deg":345.5396,"bstar":0.0014123,"rev_number":578,"period_min":91.797556749506,"perigee_km":362.32455956713,"apogee_km":363.08897125012,"semimajor_km":6740.8437654086,"source":"CELESTRAK","updated_at":"2026-05-25T13:38:17.583471Z"}}